ROMMA est une association bénévole à but non lucratif. Votre soutien est indispensable : ADHERER à ROMMA ou FAIRE un DON

Chamrousse - (38, Isère)

Massif de Belledonne (1800 m)   Longitude: 05° 52' 28" E   Latitude: 45° 06' 28" N Station partenaire n°3
 

Détail journalier du     <<     >>

Température Precipitation Humidité Pression Vent Dir Rafale Dir. rafale
Heure (°C) (mm) (%) (hPa) (km/h) (km/h)
01:00 7.208610123SSE11SSE
02:00 7.30.28510128SE16SE
03:00 7.408410139SE18SE
04:00 7.608210129SE18SE
05:00 7.208510129SE23SE
06:00 7.3082101213SE23SE
07:00 8.2074101214ESE23ESE
08:00 8.2078101312SE24SSE
09:00 8.5073101413SSE27S
10:00 8.8072101311SSO32SSO
11:00 9.2074101316S34SSO
12:00 9.4072101410SSE34SO
13:00 10.7071101411SSE27SSO
14:00 11.7071101313SSO32S
15:00 12.2068101310SSO35SSO
16:00 11.9059101214SSO34SSO
17:00 11.6070101315SSO42SSO
18:00 12.6062101212SSO26SSO
19:00 10.907510125SO21SO
20:00 9.808810138SSO18SSO
21:00 9.00.48210145SO16SO
22:00 9.40.273101315E34E
23:00 9.1075101316E45ESE
minuit 10.2066101321E35E

Graphique du 31-05-2008

 

Serveur OMMA